Time,TemperatureF,DewpointF,PressureIn,WindDirection,WindDirectionDegrees,WindSpeedMPH,WindSpeedGustMPH,Humidity,HourlyPrecipIn,Conditions,Clouds,dailyrainin,SoftwareType,DateUTC
2013-08-05 00:00:00,66.4,59.0,29.96,NE,42,0.0,0.0,77,0.00,,---,0.00,VWS V14.01,2013-08-05 07:00:00,
2013-08-05 00:05:00,66.3,58.9,29.96,NE,42,0.0,0.0,77,0.00,,---,0.00,VWS V14.01,2013-08-05 07:05:00,
2013-08-05 00:10:00,66.1,59.0,29.96,NE,42,0.0,0.0,78,0.00,,---,0.00,VWS V14.01,2013-08-05 07:10:00,
2013-08-05 00:15:00,65.9,59.2,29.96,NE,42,0.0,0.0,79,0.00,,---,0.00,VWS V14.01,2013-08-05 07:15:00,
2013-08-05 00:20:00,65.6,58.9,29.96,NE,42,0.0,0.0,79,0.00,,---,0.00,VWS V14.01,2013-08-05 07:20:00,
2013-08-05 00:25:00,65.5,59.2,29.97,NE,42,0.0,0.0,80,0.00,,---,0.00,VWS V14.01,2013-08-05 07:25:00,
2013-08-05 00:30:00,65.3,59.0,29.97,NE,42,0.0,0.0,80,0.00,,---,0.00,VWS V14.01,2013-08-05 07:30:00,
2013-08-05 00:35:00,65.1,58.8,29.97,NE,42,0.0,0.0,80,0.00,,---,0.00,VWS V14.01,2013-08-05 07:35:00,
2013-08-05 00:40:00,64.9,58.6,29.97,NE,42,0.0,0.0,80,0.00,,---,0.00,VWS V14.01,2013-08-05 07:40:00,
2013-08-05 00:45:00,64.7,58.7,29.97,NE,38,0.0,0.0,81,0.00,,---,0.00,VWS V14.01,2013-08-05 07:45:00,
2013-08-05 00:50:00,64.5,58.2,29.97,NE,45,0.0,0.0,80,0.00,,---,0.00,VWS V14.01,2013-08-05 07:50:00,
2013-08-05 00:55:00,64.3,58.3,29.96,NE,45,0.0,0.0,81,0.00,,---,0.00,VWS V14.01,2013-08-05 07:55:00,
2013-08-05 01:00:00,64.2,58.3,29.96,NE,45,0.0,0.0,81,0.00,,---,0.00,VWS V14.01,2013-08-05 08:00:00,
2013-08-05 01:06:00,64.0,58.4,29.96,NE,45,0.0,0.0,82,0.00,,---,0.00,VWS V14.01,2013-08-05 08:06:00,
2013-08-05 01:11:00,63.9,58.3,29.96,NE,45,0.0,0.0,82,0.00,,---,0.00,VWS V14.01,2013-08-05 08:11:00,
2013-08-05 01:16:00,63.7,58.1,29.96,NE,45,0.0,0.0,82,0.00,,---,0.00,VWS V14.01,2013-08-05 08:16:00,
2013-08-05 01:21:00,63.5,57.9,29.96,NE,44,0.0,0.0,82,0.00,,---,0.00,VWS V14.01,2013-08-05 08:21:00,
2013-08-05 01:26:00,63.5,57.9,29.96,NE,44,0.0,0.0,82,0.00,,---,0.00,VWS V14.01,2013-08-05 08:26:00,
2013-08-05 01:30:00,63.4,58.2,29.96,NE,56,0.0,0.0,83,0.00,,---,0.00,VWS V14.01,2013-08-05 08:30:00,
2013-08-05 01:36:00,63.3,57.7,29.96,ENE,57,0.0,0.0,82,0.00,,---,0.00,VWS V14.01,2013-08-05 08:36:00,
2013-08-05 01:41:00,63.3,58.1,29.96,ENE,59,0.0,0.0,83,0.00,,---,0.00,VWS V14.01,2013-08-05 08:41:00,
2013-08-05 01:45:00,63.2,57.6,29.96,NE,49,0.0,0.0,82,0.00,,---,0.00,VWS V14.01,2013-08-05 08:45:00,
2013-08-05 01:51:00,63.2,57.6,29.96,NE,49,0.0,0.0,82,0.00,,---,0.00,VWS V14.01,2013-08-05 08:51:00,
2013-08-05 01:56:00,63.2,57.6,29.96,NE,49,0.0,0.0,82,0.00,,---,0.00,VWS V14.01,2013-08-05 08:56:00,
2013-08-05 02:01:00,63.1,57.9,29.96,NE,49,0.0,0.0,83,0.00,,---,0.00,VWS V14.01,2013-08-05 09:01:00,
2013-08-05 02:06:00,62.9,57.7,29.96,NE,49,0.0,0.0,83,0.00,,---,0.00,VWS V14.01,2013-08-05 09:06:00,
2013-08-05 02:12:00,62.8,57.6,29.96,NE,49,0.0,0.0,83,0.00,,---,0.00,VWS V14.01,2013-08-05 09:12:00,
2013-08-05 02:17:00,62.6,57.7,29.96,NE,49,0.0,0.0,84,0.00,,---,0.00,VWS V14.01,2013-08-05 09:17:00,
2013-08-05 02:22:00,62.4,57.5,29.96,NE,49,0.0,0.0,84,0.00,,---,0.00,VWS V14.01,2013-08-05 09:22:00,
2013-08-05 02:27:00,62.2,57.6,29.96,NE,49,0.0,0.0,85,0.00,,---,0.00,VWS V14.01,2013-08-05 09:27:00,
2013-08-05 02:33:00,62.0,57.5,29.96,NE,49,0.0,0.0,85,0.00,,---,0.00,VWS V14.01,2013-08-05 09:33:00,
2013-08-05 02:38:00,61.9,57.3,29.96,NE,49,0.0,0.0,85,0.00,,---,0.00,VWS V14.01,2013-08-05 09:38:00,
2013-08-05 02:43:00,61.8,57.6,29.96,NE,49,0.0,0.0,86,0.00,,---,0.00,VWS V14.01,2013-08-05 09:43:00,
2013-08-05 02:49:00,61.7,57.5,29.96,NE,49,0.0,0.0,86,0.00,,---,0.00,VWS V14.01,2013-08-05 09:49:00,
2013-08-05 02:54:00,61.7,57.5,29.96,NE,49,0.0,0.0,86,0.00,,---,0.00,VWS V14.01,2013-08-05 09:54:00,
2013-08-05 02:59:00,61.6,57.4,29.96,NE,49,0.0,0.0,86,0.00,,---,0.00,VWS V14.01,2013-08-05 09:59:00,
2013-08-05 03:04:00,61.7,57.5,29.96,NE,49,0.0,0.0,86,0.00,,---,0.00,VWS V14.01,2013-08-05 10:04:00,
2013-08-05 03:09:00,61.6,57.4,29.96,NE,49,0.0,0.0,86,0.00,,---,0.00,VWS V14.01,2013-08-05 10:09:00,
2013-08-05 03:14:00,61.3,57.1,29.96,NE,49,0.0,0.0,86,0.00,,---,0.00,VWS V14.01,2013-08-05 10:14:00,
2013-08-05 03:19:00,61.0,56.8,29.96,NE,49,0.0,0.0,86,0.00,,---,0.00,VWS V14.01,2013-08-05 10:19:00,
2013-08-05 03:24:00,60.7,56.8,29.96,NE,49,0.0,0.0,87,0.00,,---,0.00,VWS V14.01,2013-08-05 10:24:00,
2013-08-05 03:29:00,60.4,56.5,29.96,NE,49,0.0,0.0,87,0.00,,---,0.00,VWS V14.01,2013-08-05 10:29:00,
2013-08-05 03:34:00,60.2,56.6,29.96,NE,49,0.0,0.0,88,0.00,,---,0.00,VWS V14.01,2013-08-05 10:34:00,
2013-08-05 03:40:00,60.2,57.0,29.96,NE,49,0.0,0.0,89,0.00,,---,0.00,VWS V14.01,2013-08-05 10:40:00,
2013-08-05 03:45:00,60.2,57.0,29.96,NE,49,0.0,0.0,89,0.00,,---,0.00,VWS V14.01,2013-08-05 10:45:00,
2013-08-05 03:50:00,60.0,56.8,29.96,NE,49,0.0,0.0,89,0.00,,---,0.00,VWS V14.01,2013-08-05 10:50:00,
2013-08-05 03:56:00,59.8,56.6,29.96,NE,49,0.0,0.0,89,0.00,,---,0.00,VWS V14.01,2013-08-05 10:56:00,
2013-08-05 04:01:00,59.8,56.9,29.96,NE,49,0.0,0.0,90,0.00,,---,0.00,VWS V14.01,2013-08-05 11:01:00,
2013-08-05 04:06:00,59.8,56.9,29.96,NE,49,0.0,0.0,90,0.00,,---,0.00,VWS V14.01,2013-08-05 11:06:00,
2013-08-05 04:11:00,59.7,56.8,29.96,NE,49,0.0,0.0,90,0.00,,---,0.00,VWS V14.01,2013-08-05 11:11:00,
2013-08-05 04:16:00,59.5,56.3,29.96,NE,49,0.0,0.0,89,0.00,,---,0.00,VWS V14.01,2013-08-05 11:16:00,
2013-08-05 04:22:00,59.3,56.4,29.96,NE,49,0.0,0.0,90,0.00,,---,0.00,VWS V14.01,2013-08-05 11:22:00,
2013-08-05 04:27:00,59.1,56.2,29.96,NE,49,0.0,0.0,90,0.00,,---,0.00,VWS V14.01,2013-08-05 11:27:00,
2013-08-05 04:32:00,59.0,56.1,29.96,NE,49,0.0,0.0,90,0.00,,---,0.00,VWS V14.01,2013-08-05 11:32:00,
2013-08-05 04:37:00,59.0,56.4,29.96,NE,49,0.0,0.0,91,0.00,,---,0.00,VWS V14.01,2013-08-05 11:37:00,
2013-08-05 04:43:00,59.0,56.4,29.96,NE,49,0.0,0.0,91,0.00,,---,0.00,VWS V14.01,2013-08-05 11:43:00,
2013-08-05 04:48:00,59.0,56.4,29.96,NE,49,0.0,0.0,91,0.00,,---,0.00,VWS V14.01,2013-08-05 11:48:00,
2013-08-05 04:53:00,59.0,56.4,29.96,NE,49,0.0,0.0,91,0.00,,---,0.00,VWS V14.01,2013-08-05 11:53:00,
2013-08-05 04:58:00,59.0,56.7,29.96,NE,49,0.0,0.0,92,0.00,,---,0.00,VWS V14.01,2013-08-05 11:58:00,
2013-08-05 05:03:00,59.0,56.7,29.97,NE,49,0.0,0.0,92,0.00,,---,0.00,VWS V14.01,2013-08-05 12:03:00,
2013-08-05 05:08:00,59.0,56.7,29.97,NE,49,0.0,0.0,92,0.00,,---,0.00,VWS V14.01,2013-08-05 12:08:00,
2013-08-05 05:13:00,58.8,56.5,29.97,NE,49,0.0,0.0,92,0.00,,---,0.00,VWS V14.01,2013-08-05 12:13:00,
2013-08-05 05:19:00,58.7,56.4,29.97,NE,49,0.0,0.0,92,0.00,,---,0.00,VWS V14.01,2013-08-05 12:19:00,
2013-08-05 05:24:00,58.5,56.2,29.97,NE,49,0.0,0.0,92,0.00,,---,0.00,VWS V14.01,2013-08-05 12:24:00,
2013-08-05 05:29:00,58.5,56.2,29.97,NE,49,0.0,0.0,92,0.00,,---,0.00,VWS V14.01,2013-08-05 12:29:00,
2013-08-05 05:34:00,58.5,56.5,29.97,NE,49,0.0,0.0,93,0.00,,---,0.00,VWS V14.01,2013-08-05 12:34:00,
2013-08-05 05:39:00,58.6,56.6,29.97,NE,49,0.0,0.0,93,0.00,,---,0.00,VWS V14.01,2013-08-05 12:39:00,
2013-08-05 05:44:00,58.5,56.2,29.97,NE,49,0.0,0.0,92,0.00,,---,0.00,VWS V14.01,2013-08-05 12:44:00,
2013-08-05 05:49:00,58.5,56.5,29.97,NE,49,0.0,0.0,93,0.00,,---,0.00,VWS V14.01,2013-08-05 12:49:00,
2013-08-05 05:54:00,58.4,56.4,29.97,NE,49,0.0,0.0,93,0.00,,---,0.00,VWS V14.01,2013-08-05 12:54:00,
2013-08-05 05:59:00,58.4,56.4,29.97,NE,49,0.0,0.0,93,0.00,,---,0.00,VWS V14.01,2013-08-05 12:59:00,
2013-08-05 06:04:00,58.3,56.3,29.97,NE,49,0.0,0.0,93,0.00,,---,0.00,VWS V14.01,2013-08-05 13:04:00,
2013-08-05 06:10:00,58.2,56.2,29.97,NE,49,0.0,0.0,93,0.00,,---,0.00,VWS V14.01,2013-08-05 13:10:00,
2013-08-05 06:14:00,58.1,56.1,29.97,NE,49,0.0,0.0,93,0.00,,---,0.00,VWS V14.01,2013-08-05 13:14:00,
2013-08-05 06:20:00,58.1,56.1,29.97,NE,49,0.0,0.0,93,0.00,,---,0.00,VWS V14.01,2013-08-05 13:20:00,
2013-08-05 06:24:00,58.0,56.0,29.98,NE,49,0.0,0.0,93,0.00,,---,0.00,VWS V14.01,2013-08-05 13:24:00,
2013-08-05 06:30:00,58.1,56.1,29.98,NE,49,0.0,0.0,93,0.00,,---,0.00,VWS V14.01,2013-08-05 13:30:00,
2013-08-05 06:35:00,58.2,56.5,29.98,NE,49,0.0,0.0,94,0.00,,---,0.00,VWS V14.01,2013-08-05 13:35:00,
2013-08-05 06:40:00,58.2,56.5,29.98,NE,49,0.0,0.0,94,0.00,,---,0.00,VWS V14.01,2013-08-05 13:40:00,
2013-08-05 06:46:00,58.4,56.4,29.98,NE,49,0.0,0.0,93,0.00,,---,0.00,VWS V14.01,2013-08-05 13:46:00,
2013-08-05 06:51:00,58.6,56.9,29.98,NE,49,0.0,0.0,94,0.00,,---,0.00,VWS V14.01,2013-08-05 13:51:00,
2013-08-05 06:56:00,59.0,57.0,29.98,NE,49,0.0,0.0,93,0.00,,---,0.00,VWS V14.01,2013-08-05 13:56:00,
2013-08-05 07:00:00,59.6,57.6,29.98,NE,49,0.0,0.0,93,0.00,,---,0.00,VWS V14.01,2013-08-05 14:00:00,
2013-08-05 07:06:00,60.0,57.4,29.98,NE,49,0.0,0.0,91,0.00,,---,0.00,VWS V14.01,2013-08-05 14:06:00,
2013-08-05 07:11:00,60.4,57.8,29.98,NE,49,0.0,0.0,91,0.00,,---,0.00,VWS V14.01,2013-08-05 14:11:00,
2013-08-05 07:16:00,60.9,58.0,29.98,NE,49,0.0,0.0,90,0.00,,---,0.00,VWS V14.01,2013-08-05 14:16:00,
2013-08-05 07:22:00,61.4,57.8,29.98,NE,49,0.0,0.0,88,0.00,,---,0.00,VWS V14.01,2013-08-05 14:22:00,
2013-08-05 07:27:00,61.8,58.2,29.98,NE,49,0.0,0.0,88,0.00,,---,0.00,VWS V14.01,2013-08-05 14:27:00,
2013-08-05 07:32:00,62.3,58.7,29.99,NE,49,0.0,0.0,88,0.00,,---,0.00,VWS V14.01,2013-08-05 14:32:00,
2013-08-05 07:37:00,62.8,58.6,29.99,NE,49,0.0,0.0,86,0.00,,---,0.00,VWS V14.01,2013-08-05 14:37:00,
2013-08-05 07:42:00,63.3,58.7,29.99,NE,49,0.0,0.0,85,0.00,,---,0.00,VWS V14.01,2013-08-05 14:42:00,
2013-08-05 07:48:00,63.7,58.8,29.99,NE,49,0.0,0.0,84,0.00,,---,0.00,VWS V14.01,2013-08-05 14:48:00,
2013-08-05 07:53:00,64.3,59.0,29.99,NE,49,0.0,0.0,83,0.00,,---,0.00,VWS V14.01,2013-08-05 14:53:00,
2013-08-05 07:58:00,64.7,58.7,29.99,NE,49,0.0,0.0,81,0.00,,---,0.00,VWS V14.01,2013-08-05 14:58:00,
2013-08-05 08:04:00,65.0,58.7,29.99,NE,49,0.0,0.0,80,0.00,,---,0.00,VWS V14.01,2013-08-05 15:04:00,
2013-08-05 08:08:00,65.2,57.8,29.99,NE,49,0.0,0.0,77,0.00,,---,0.00,VWS V14.01,2013-08-05 15:08:00,
2013-08-05 08:13:00,65.6,58.2,29.99,NE,49,0.0,0.0,77,0.00,,---,0.00,VWS V14.01,2013-08-05 15:13:00,
2013-08-05 08:19:00,66.2,58.8,29.99,NE,49,0.0,0.0,77,0.00,,---,0.00,VWS V14.01,2013-08-05 15:19:00,
2013-08-05 08:24:00,66.5,59.1,29.99,NE,49,0.0,0.0,77,0.00,,---,0.00,VWS V14.01,2013-08-05 15:24:00,
2013-08-05 08:29:00,66.7,58.5,29.99,NNW,327,0.0,0.0,75,0.00,,---,0.00,VWS V14.01,2013-08-05 15:29:00,
2013-08-05 08:34:00,66.5,58.7,29.99,NNW,327,0.0,0.0,76,0.00,,---,0.00,VWS V14.01,2013-08-05 15:34:00,
2013-08-05 08:39:00,66.8,58.6,29.99,NNW,327,0.0,0.0,75,0.00,,---,0.00,VWS V14.01,2013-08-05 15:39:00,
2013-08-05 08:45:00,67.1,58.9,29.99,NNW,327,0.0,0.0,75,0.00,,---,0.00,VWS V14.01,2013-08-05 15:45:00,
2013-08-05 08:50:00,67.8,59.6,29.99,NNW,327,0.0,0.0,75,0.00,,---,0.00,VWS V14.01,2013-08-05 15:50:00,
2013-08-05 08:55:00,68.8,59.8,29.99,NNW,327,0.0,0.0,73,0.00,,---,0.00,VWS V14.01,2013-08-05 15:55:00,
2013-08-05 09:00:00,69.3,59.9,29.99,NW,326,0.0,0.0,72,0.00,,---,0.00,VWS V14.01,2013-08-05 16:00:00,
2013-08-05 09:05:00,69.5,59.7,29.99,NW,322,0.0,0.0,71,0.00,,---,0.00,VWS V14.01,2013-08-05 16:05:00,
2013-08-05 09:10:00,69.3,59.5,29.99,WNW,294,0.0,0.0,71,0.00,,---,0.00,VWS V14.01,2013-08-05 16:10:00,
2013-08-05 09:15:00,69.1,59.7,30.00,WNW,290,0.0,0.0,72,0.00,,---,0.00,VWS V14.01,2013-08-05 16:15:00,
2013-08-05 09:21:00,69.4,60.0,30.00,WNW,290,0.0,0.0,72,0.00,,---,0.00,VWS V14.01,2013-08-05 16:21:00,
2013-08-05 09:26:00,69.7,59.5,30.00,WNW,287,0.0,0.0,70,0.00,,---,0.00,VWS V14.01,2013-08-05 16:26:00,
2013-08-05 09:31:00,70.2,60.0,30.00,WNW,294,0.0,0.0,70,0.00,,---,0.00,VWS V14.01,2013-08-05 16:31:00,
2013-08-05 09:36:00,70.7,60.8,29.99,WNW,292,0.0,0.0,71,0.00,,---,0.00,VWS V14.01,2013-08-05 16:36:00,
2013-08-05 09:42:00,71.3,60.6,30.00,WNW,284,0.0,0.0,69,0.00,,---,0.00,VWS V14.01,2013-08-05 16:42:00,
2013-08-05 09:48:00,71.6,60.5,29.99,WSW,254,0.0,0.0,68,0.00,,---,0.00,VWS V14.01,2013-08-05 16:48:00,
2013-08-05 09:53:00,71.7,61.0,29.99,West,274,0.0,0.0,69,0.00,,---,0.00,VWS V14.01,2013-08-05 16:53:00,
2013-08-05 09:58:00,72.2,61.5,29.99,WNW,295,5.0,5.0,69,0.00,,---,0.00,VWS V14.01,2013-08-05 16:58:00,
2013-08-05 10:03:00,71.5,60.8,30.00,WNW,299,3.0,4.0,69,0.00,,---,0.00,VWS V14.01,2013-08-05 17:03:00,
2013-08-05 10:08:00,71.3,61.0,29.99,West,275,0.0,4.0,70,0.00,,---,0.00,VWS V14.01,2013-08-05 17:08:00,
2013-08-05 10:14:00,71.5,61.2,29.99,WSW,245,1.0,4.0,70,0.00,,---,0.00,VWS V14.01,2013-08-05 17:14:00,
2013-08-05 10:18:00,71.7,61.0,29.99,WNW,288,1.0,5.0,69,0.00,,---,0.00,VWS V14.01,2013-08-05 17:18:00,
2013-08-05 10:24:00,72.1,61.0,29.99,WNW,288,0.0,5.0,68,0.00,,---,0.00,VWS V14.01,2013-08-05 17:24:00,
2013-08-05 10:29:00,71.8,60.7,29.99,SW,232,1.0,7.0,68,0.00,,---,0.00,VWS V14.01,2013-08-05 17:29:00,
2013-08-05 10:34:00,71.6,60.9,29.99,West,259,3.0,6.0,69,0.00,,---,0.00,VWS V14.01,2013-08-05 17:34:00,
2013-08-05 10:39:00,72.0,61.3,29.99,NW,306,3.0,6.0,69,0.00,,---,0.00,VWS V14.01,2013-08-05 17:39:00,
2013-08-05 10:44:00,72.3,61.2,29.99,WNW,294,5.0,6.0,68,0.00,,---,0.00,VWS V14.01,2013-08-05 17:44:00,
2013-08-05 10:49:00,72.6,61.0,29.99,West,273,1.0,6.0,67,0.00,,---,0.00,VWS V14.01,2013-08-05 17:49:00,
2013-08-05 10:54:00,72.7,61.1,29.99,West,263,2.0,6.0,67,0.00,,---,0.00,VWS V14.01,2013-08-05 17:54:00,
2013-08-05 11:00:00,73.5,61.0,29.99,SW,223,1.0,6.0,65,0.00,,---,0.00,VWS V14.01,2013-08-05 18:00:00,
2013-08-05 11:05:00,73.8,61.7,29.99,SW,232,0.0,5.0,66,0.00,,---,0.00,VWS V14.01,2013-08-05 18:05:00,
2013-08-05 11:10:00,74.3,61.8,29.99,West,271,4.0,6.0,65,0.00,,---,0.00,VWS V14.01,2013-08-05 18:10:00,
2013-08-05 11:15:00,74.3,61.3,29.99,WNW,296,5.0,7.0,64,0.00,,---,0.00,VWS V14.01,2013-08-05 18:15:00,
2013-08-05 11:20:00,74.2,61.2,29.99,WNW,295,1.0,7.0,64,0.00,,---,0.00,VWS V14.01,2013-08-05 18:20:00,
2013-08-05 11:25:00,73.5,61.0,29.99,NW,319,1.0,7.0,65,0.00,,---,0.00,VWS V14.01,2013-08-05 18:25:00,
2013-08-05 11:31:00,73.5,61.5,29.99,West,270,0.0,4.0,66,0.00,,---,0.00,VWS V14.01,2013-08-05 18:31:00,
2013-08-05 11:36:00,73.7,60.8,29.99,SW,229,0.0,5.0,64,0.00,,---,0.00,VWS V14.01,2013-08-05 18:36:00,
2013-08-05 11:41:00,74.2,61.2,29.99,WSW,246,2.0,6.0,64,0.00,,---,0.00,VWS V14.01,2013-08-05 18:41:00,
2013-08-05 11:46:00,74.6,60.7,29.99,West,275,1.0,6.0,62,0.00,,---,0.00,VWS V14.01,2013-08-05 18:46:00,
2013-08-05 11:51:00,75.0,60.7,29.99,WNW,300,4.0,6.0,61,0.00,,---,0.00,VWS V14.01,2013-08-05 18:51:00,
2013-08-05 11:57:00,74.9,60.6,29.99,West,275,2.0,7.0,61,0.00,,---,0.00,VWS V14.01,2013-08-05 18:57:00,
2013-08-05 12:02:00,74.6,60.3,29.99,NW,307,0.0,4.0,61,0.00,,---,0.00,VWS V14.01,2013-08-05 19:02:00,
2013-08-05 12:08:00,75.3,60.5,29.99,WNW,294,0.0,5.0,60,0.00,,---,0.00,VWS V14.01,2013-08-05 19:08:00,
2013-08-05 12:13:00,76.4,60.1,29.99,SW,235,3.0,6.0,57,0.00,,---,0.00,VWS V14.01,2013-08-05 19:13:00,
2013-08-05 12:18:00,76.9,60.5,29.99,NW,305,2.0,6.0,57,0.00,,---,0.00,VWS V14.01,2013-08-05 19:18:00,
2013-08-05 12:24:00,76.6,59.8,29.98,WNW,292,4.0,6.0,56,0.00,,---,0.00,VWS V14.01,2013-08-05 19:24:00,
2013-08-05 12:29:00,76.3,60.5,29.99,WSW,246,1.0,6.0,58,0.00,,---,0.00,VWS V14.01,2013-08-05 19:29:00,
2013-08-05 12:34:00,76.4,60.5,29.99,WSW,258,3.0,6.0,58,0.00,,---,0.00,VWS V14.01,2013-08-05 19:34:00,
2013-08-05 12:39:00,76.4,60.5,29.98,NW,313,2.0,7.0,58,0.00,,---,0.00,VWS V14.01,2013-08-05 19:39:00,
2013-08-05 12:44:00,76.2,60.8,29.98,NW,313,5.0,7.0,59,0.00,,---,0.00,VWS V14.01,2013-08-05 19:44:00,
2013-08-05 12:49:00,76.3,60.5,29.98,West,267,5.0,7.0,58,0.00,,---,0.00,VWS V14.01,2013-08-05 19:49:00,
2013-08-05 12:54:00,76.5,60.6,29.98,NW,317,5.0,7.0,58,0.00,,---,0.00,VWS V14.01,2013-08-05 19:54:00,
2013-08-05 12:59:00,76.6,60.7,29.98,SW,217,0.0,7.0,58,0.00,,---,0.00,VWS V14.01,2013-08-05 19:59:00,
2013-08-05 13:04:00,76.9,61.0,29.98,WNW,303,5.0,5.0,58,0.00,,---,0.00,VWS V14.01,2013-08-05 20:04:00,
2013-08-05 13:09:00,77.3,61.9,29.98,NW,304,0.0,6.0,59,0.00,,---,0.00,VWS V14.01,2013-08-05 20:09:00,
2013-08-05 13:14:00,77.8,61.4,29.98,WNW,300,3.0,9.0,57,0.00,,---,0.00,VWS V14.01,2013-08-05 20:14:00,
2013-08-05 13:20:00,78.2,61.7,29.97,NW,304,2.0,9.0,57,0.00,,---,0.00,VWS V14.01,2013-08-05 20:20:00,
2013-08-05 13:25:00,78.0,61.5,29.97,WSW,256,4.0,9.0,57,0.00,,---,0.00,VWS V14.01,2013-08-05 20:25:00,
2013-08-05 13:30:00,78.3,62.3,29.97,WSW,253,1.0,9.0,58,0.00,,---,0.00,VWS V14.01,2013-08-05 20:30:00,
2013-08-05 13:35:00,78.9,61.9,29.97,WNW,285,1.0,6.0,56,0.00,,---,0.00,VWS V14.01,2013-08-05 20:35:00,
2013-08-05 13:40:00,79.8,62.2,29.97,West,277,0.0,6.0,55,0.00,,---,0.00,VWS V14.01,2013-08-05 20:40:00,
2013-08-05 13:46:00,80.5,62.9,29.97,WNW,297,3.0,6.0,55,0.00,,---,0.00,VWS V14.01,2013-08-05 20:46:00,
2013-08-05 13:51:00,80.1,62.0,29.97,NW,304,1.0,6.0,54,0.00,,---,0.00,VWS V14.01,2013-08-05 20:51:00,
2013-08-05 13:56:00,79.6,62.0,29.97,WNW,300,0.0,6.0,55,0.00,,---,0.00,VWS V14.01,2013-08-05 20:56:00,
2013-08-05 14:01:00,79.7,62.1,29.97,West,263,0.0,1.0,55,0.00,,---,0.00,VWS V14.01,2013-08-05 21:01:00,
2013-08-05 14:07:00,80.0,61.9,29.96,NW,320,1.0,2.0,54,0.00,,---,0.00,VWS V14.01,2013-08-05 21:07:00,
2013-08-05 14:12:00,80.1,62.0,29.96,WNW,298,0.0,4.0,54,0.00,,---,0.00,VWS V14.01,2013-08-05 21:12:00,
2013-08-05 14:17:00,80.1,62.0,29.96,WNW,286,7.0,7.0,54,0.00,,---,0.00,VWS V14.01,2013-08-05 21:17:00,
2013-08-05 14:22:00,79.6,61.5,29.96,NW,309,0.0,7.0,54,0.00,,---,0.00,VWS V14.01,2013-08-05 21:22:00,
2013-08-05 14:27:00,80.0,61.9,29.96,NW,311,1.0,7.0,54,0.00,,---,0.00,VWS V14.01,2013-08-05 21:27:00,
2013-08-05 14:32:00,80.7,62.0,29.96,NW,325,1.0,2.0,53,0.00,,---,0.00,VWS V14.01,2013-08-05 21:32:00,
2013-08-05 14:38:00,80.7,62.0,29.96,NW,309,3.0,7.0,53,0.00,,---,0.00,VWS V14.01,2013-08-05 21:38:00,
2013-08-05 14:43:00,80.7,62.0,29.96,NW,307,1.0,7.0,53,0.00,,---,0.00,VWS V14.01,2013-08-05 21:43:00,
2013-08-05 14:48:00,80.9,62.2,29.96,WNW,283,3.0,7.0,53,0.00,,---,0.00,VWS V14.01,2013-08-05 21:48:00,
2013-08-05 14:53:00,81.1,61.3,29.95,WNW,296,0.0,7.0,51,0.00,,---,0.00,VWS V14.01,2013-08-05 21:53:00,
2013-08-05 14:58:00,81.6,61.2,29.95,WNW,289,4.0,7.0,50,0.00,,---,0.00,VWS V14.01,2013-08-05 21:58:00,
2013-08-05 15:03:00,81.7,62.4,29.95,WSW,257,0.0,1.0,52,0.00,,---,0.00,VWS V14.01,2013-08-05 22:03:00,
2013-08-05 15:08:00,82.0,62.1,29.95,WNW,287,3.0,4.0,51,0.00,,---,0.00,VWS V14.01,2013-08-05 22:08:00,
2013-08-05 15:13:00,82.2,62.8,29.95,NW,306,2.0,6.0,52,0.00,,---,0.00,VWS V14.01,2013-08-05 22:13:00,
2013-08-05 15:18:00,81.8,61.9,29.95,WSW,249,2.0,6.0,51,0.00,,---,0.00,VWS V14.01,2013-08-05 22:18:00,
2013-08-05 15:24:00,82.2,62.3,29.94,WSW,249,4.0,6.0,51,0.00,,---,0.00,VWS V14.01,2013-08-05 22:24:00,
2013-08-05 15:29:00,82.7,62.8,29.94,West,280,0.0,6.0,51,0.00,,---,0.00,VWS V14.01,2013-08-05 22:29:00,
2013-08-05 15:34:00,83.0,63.0,29.94,WNW,302,2.0,6.0,51,0.00,,---,0.00,VWS V14.01,2013-08-05 22:34:00,
2013-08-05 15:39:00,82.8,62.3,29.94,West,265,0.0,6.0,50,0.00,,---,0.00,VWS V14.01,2013-08-05 22:39:00,
2013-08-05 15:44:00,82.6,62.1,29.94,WNW,294,1.0,7.0,50,0.00,,---,0.00,VWS V14.01,2013-08-05 22:44:00,
2013-08-05 15:50:00,82.7,62.2,29.94,NW,309,0.0,7.0,50,0.00,,---,0.00,VWS V14.01,2013-08-05 22:50:00,
2013-08-05 15:55:00,82.7,59.8,29.93,WNW,297,0.0,7.0,46,0.00,,---,0.00,VWS V14.01,2013-08-05 22:55:00,
2013-08-05 16:00:00,83.4,60.5,29.93,West,271,0.0,7.0,46,0.00,,---,0.00,VWS V14.01,2013-08-05 23:00:00,
2013-08-05 16:05:00,84.0,60.4,29.93,NW,305,4.0,6.0,45,0.00,,---,0.00,VWS V14.01,2013-08-05 23:05:00,
2013-08-05 16:10:00,84.3,60.7,29.93,NW,318,6.0,6.0,45,0.00,,---,0.00,VWS V14.01,2013-08-05 23:10:00,
2013-08-05 16:16:00,84.1,60.5,29.93,West,269,3.0,6.0,45,0.00,,---,0.00,VWS V14.01,2013-08-05 23:16:00,
2013-08-05 16:21:00,84.0,60.4,29.93,WNW,288,6.0,7.0,45,0.00,,---,0.00,VWS V14.01,2013-08-05 23:21:00,
2013-08-05 16:27:00,83.6,60.0,29.92,WSW,258,0.0,7.0,45,0.00,,---,0.00,VWS V14.01,2013-08-05 23:27:00,
2013-08-05 16:32:00,84.4,60.8,29.92,West,272,1.0,2.0,45,0.00,,---,0.00,VWS V14.01,2013-08-05 23:32:00,
2013-08-05 16:37:00,84.9,59.9,29.92,NW,308,2.0,5.0,43,0.00,,---,0.00,VWS V14.01,2013-08-05 23:37:00,
2013-08-05 16:42:00,84.5,60.8,29.92,WNW,294,1.0,5.0,45,0.00,,---,0.00,VWS V14.01,2013-08-05 23:42:00,
2013-08-05 16:48:00,84.0,60.4,29.92,WNW,299,4.0,7.0,45,0.00,,---,0.00,VWS V14.01,2013-08-05 23:48:00,
2013-08-05 16:53:00,83.5,59.3,29.92,West,281,0.0,7.0,44,0.00,,---,0.00,VWS V14.01,2013-08-05 23:53:00,
2013-08-05 16:58:00,83.6,60.7,29.92,WNW,288,2.0,7.0,46,0.00,,---,0.00,VWS V14.01,2013-08-05 23:58:00,
2013-08-05 17:03:00,84.1,59.9,29.92,NW,325,2.0,5.0,44,0.00,,---,0.00,VWS V14.01,2013-08-06 00:03:00,
2013-08-05 17:08:00,83.8,60.2,29.92,NW,311,2.0,6.0,45,0.00,,---,0.00,VWS V14.01,2013-08-06 00:08:00,
2013-08-05 17:13:00,83.5,59.9,29.92,West,259,3.0,6.0,45,0.00,,---,0.00,VWS V14.01,2013-08-06 00:13:00,
2013-08-05 17:19:00,83.2,60.3,29.91,WNW,298,2.0,9.0,46,0.00,,---,0.00,VWS V14.01,2013-08-06 00:19:00,
2013-08-05 17:24:00,82.8,60.5,29.91,NW,323,1.0,9.0,47,0.00,,---,0.00,VWS V14.01,2013-08-06 00:24:00,
2013-08-05 17:29:00,82.4,60.8,29.91,WNW,289,2.0,9.0,48,0.00,,---,0.00,VWS V14.01,2013-08-06 00:29:00,
2013-08-05 17:34:00,81.9,60.9,29.91,NW,307,5.0,6.0,49,0.00,,---,0.00,VWS V14.01,2013-08-06 00:34:00,
2013-08-05 17:39:00,81.5,61.1,29.91,WNW,300,3.0,7.0,50,0.00,,---,0.00,VWS V14.01,2013-08-06 00:39:00,
2013-08-05 17:45:00,80.9,61.6,29.91,WNW,296,4.0,7.0,52,0.00,,---,0.00,VWS V14.01,2013-08-06 00:45:00,
2013-08-05 17:50:00,80.5,61.8,29.91,NW,311,4.0,7.0,53,0.00,,---,0.00,VWS V14.01,2013-08-06 00:50:00,
2013-08-05 17:55:00,80.4,61.7,29.91,West,275,0.0,7.0,53,0.00,,---,0.00,VWS V14.01,2013-08-06 00:55:00,
2013-08-05 18:00:00,80.7,62.5,29.91,WNW,299,2.0,7.0,54,0.00,,---,0.00,VWS V14.01,2013-08-06 01:00:00,
2013-08-05 18:05:00,80.9,61.6,29.91,West,280,5.0,6.0,52,0.00,,---,0.00,VWS V14.01,2013-08-06 01:05:00,
2013-08-05 18:10:00,80.5,61.8,29.91,WNW,298,4.0,6.0,53,0.00,,---,0.00,VWS V14.01,2013-08-06 01:10:00,
2013-08-05 18:15:00,80.4,61.7,29.91,WNW,293,1.0,6.0,53,0.00,,---,0.00,VWS V14.01,2013-08-06 01:15:00,
2013-08-05 18:21:00,80.5,61.8,29.91,WNW,299,1.0,6.0,53,0.00,,---,0.00,VWS V14.01,2013-08-06 01:21:00,
2013-08-05 18:26:00,80.4,61.7,29.91,WNW,289,3.0,6.0,53,0.00,,---,0.00,VWS V14.01,2013-08-06 01:26:00,
2013-08-05 18:31:00,80.2,62.1,29.90,West,275,0.0,3.0,54,0.00,,---,0.00,VWS V14.01,2013-08-06 01:31:00,
2013-08-05 18:36:00,80.4,61.7,29.91,WSW,242,1.0,5.0,53,0.00,,---,0.00,VWS V14.01,2013-08-06 01:36:00,
2013-08-05 18:41:00,80.3,62.2,29.90,WNW,293,2.0,5.0,54,0.00,,---,0.00,VWS V14.01,2013-08-06 01:41:00,
2013-08-05 18:46:00,80.2,62.1,29.90,WNW,294,1.0,6.0,54,0.00,,---,0.00,VWS V14.01,2013-08-06 01:46:00,
2013-08-05 18:52:00,79.6,61.5,29.90,NW,304,1.0,6.0,54,0.00,,---,0.00,VWS V14.01,2013-08-06 01:52:00,
2013-08-05 18:57:00,79.1,61.6,29.91,WSW,238,1.0,6.0,55,0.00,,---,0.00,VWS V14.01,2013-08-06 01:57:00,
2013-08-05 19:02:00,78.7,61.2,29.90,WSW,250,0.0,6.0,55,0.00,,---,0.00,VWS V14.01,2013-08-06 02:02:00,
2013-08-05 19:07:00,78.2,61.2,29.90,NW,317,0.0,6.0,56,0.00,,---,0.00,VWS V14.01,2013-08-06 02:07:00,
2013-08-05 19:12:00,78.1,61.1,29.91,WSW,242,4.0,6.0,56,0.00,,---,0.00,VWS V14.01,2013-08-06 02:12:00,
2013-08-05 19:17:00,78.1,61.6,29.91,WNW,303,1.0,6.0,57,0.00,,---,0.00,VWS V14.01,2013-08-06 02:17:00,
2013-08-05 19:22:00,78.0,61.0,29.91,West,277,0.0,6.0,56,0.00,,---,0.00,VWS V14.01,2013-08-06 02:22:00,
2013-08-05 19:27:00,77.7,61.3,29.91,WNW,302,0.0,6.0,57,0.00,,---,0.00,VWS V14.01,2013-08-06 02:27:00,
2013-08-05 19:32:00,77.4,61.5,29.90,WNW,303,0.0,4.0,58,0.00,,---,0.00,VWS V14.01,2013-08-06 02:32:00,
2013-08-05 19:37:00,77.4,61.5,29.90,WNW,303,0.0,4.0,58,0.00,,---,0.00,VWS V14.01,2013-08-06 02:37:00,
2013-08-05 19:42:00,77.4,61.5,29.91,NW,304,0.0,4.0,58,0.00,,---,0.00,VWS V14.01,2013-08-06 02:42:00,
2013-08-05 19:48:00,77.2,61.3,29.91,WNW,303,0.0,4.0,58,0.00,,---,0.00,VWS V14.01,2013-08-06 02:48:00,
2013-08-05 19:53:00,76.8,60.9,29.91,NW,317,1.0,4.0,58,0.00,,---,0.00,VWS V14.01,2013-08-06 02:53:00,
2013-08-05 19:58:00,76.6,61.2,29.91,WNW,292,2.0,4.0,59,0.00,,---,0.00,VWS V14.01,2013-08-06 02:58:00,
2013-08-05 20:03:00,76.4,61.0,29.91,NW,307,0.0,2.0,59,0.00,,---,0.00,VWS V14.01,2013-08-06 03:03:00,
2013-08-05 20:08:00,76.3,60.9,29.91,NW,326,2.0,3.0,59,0.00,,---,0.00,VWS V14.01,2013-08-06 03:08:00,
2013-08-05 20:13:00,76.0,61.1,29.91,NNW,330,0.0,3.0,60,0.00,,---,0.00,VWS V14.01,2013-08-06 03:13:00,
2013-08-05 20:19:00,75.8,61.4,29.91,NW,320,0.0,3.0,61,0.00,,---,0.00,VWS V14.01,2013-08-06 03:19:00,
2013-08-05 20:24:00,75.6,61.2,29.91,NW,319,0.0,3.0,61,0.00,,---,0.00,VWS V14.01,2013-08-06 03:24:00,
2013-08-05 20:29:00,75.2,60.8,29.91,NW,320,0.0,3.0,61,0.00,,---,0.00,VWS V14.01,2013-08-06 03:29:00,
2013-08-05 20:34:00,74.6,60.7,29.91,NW,320,0.0,1.0,62,0.00,,---,0.00,VWS V14.01,2013-08-06 03:34:00,
2013-08-05 20:39:00,73.9,60.5,29.91,NW,320,0.0,1.0,63,0.00,,---,0.00,VWS V14.01,2013-08-06 03:39:00,
2013-08-05 20:44:00,73.2,60.3,29.91,NW,316,0.0,3.0,64,0.00,,---,0.00,VWS V14.01,2013-08-06 03:44:00,
2013-08-05 20:49:00,72.4,60.0,29.91,WNW,298,0.0,3.0,65,0.00,,---,0.00,VWS V14.01,2013-08-06 03:49:00,
2013-08-05 20:55:00,71.8,60.3,29.92,WNW,299,0.0,3.0,67,0.00,,---,0.00,VWS V14.01,2013-08-06 03:55:00,
2013-08-05 21:00:00,71.3,60.2,29.92,WNW,299,0.0,3.0,68,0.00,,---,0.00,VWS V14.01,2013-08-06 04:00:00,
2013-08-05 21:01:00,71.3,60.2,29.92,WNW,299,0.0,0.0,68,0.00,,---,0.00,VWS V14.01,2013-08-06 04:01:00,
2013-08-05 21:02:00,71.3,60.2,29.92,WNW,299,0.0,0.0,68,0.00,,---,0.00,VWS V14.01,2013-08-06 04:02:00,
2013-08-05 21:07:00,71.0,60.3,29.92,WNW,299,0.0,0.0,69,0.00,,---,0.00,VWS V14.01,2013-08-06 04:07:00,
2013-08-05 21:12:00,70.8,60.1,29.92,WNW,299,0.0,1.0,69,0.00,,---,0.00,VWS V14.01,2013-08-06 04:12:00,
2013-08-05 21:17:00,70.6,61.1,29.92,WNW,299,0.0,1.0,72,0.00,,---,0.00,VWS V14.01,2013-08-06 04:17:00,
2013-08-05 21:22:00,70.6,60.8,29.92,WNW,299,0.0,1.0,71,0.00,,---,0.00,VWS V14.01,2013-08-06 04:22:00,
2013-08-05 21:27:00,70.4,60.6,29.92,WNW,299,0.0,1.0,71,0.00,,---,0.00,VWS V14.01,2013-08-06 04:27:00,
2013-08-05 21:32:00,70.1,60.7,29.92,WNW,299,0.0,1.0,72,0.00,,---,0.00,VWS V14.01,2013-08-06 04:32:00,
2013-08-05 21:37:00,69.9,60.5,29.92,WNW,299,0.0,1.0,72,0.00,,---,0.00,VWS V14.01,2013-08-06 04:37:00,
2013-08-05 21:43:00,69.8,60.8,29.92,WNW,299,0.0,1.0,73,0.00,,---,0.00,VWS V14.01,2013-08-06 04:43:00,
2013-08-05 21:48:00,69.6,61.0,29.92,WNW,299,0.0,1.0,74,0.00,,---,0.00,VWS V14.01,2013-08-06 04:48:00,
2013-08-05 21:53:00,69.4,60.0,29.93,WNW,299,0.0,1.0,72,0.00,,---,0.00,VWS V14.01,2013-08-06 04:53:00,
2013-08-05 21:58:00,69.3,60.3,29.93,WNW,299,0.0,1.0,73,0.00,,---,0.00,VWS V14.01,2013-08-06 04:58:00,
2013-08-05 22:03:00,69.2,59.8,29.93,WNW,299,0.0,0.0,72,0.00,,---,0.00,VWS V14.01,2013-08-06 05:03:00,
2013-08-05 22:08:00,69.1,58.5,29.93,WNW,299,0.0,1.0,69,0.00,,---,0.00,VWS V14.01,2013-08-06 05:08:00,
2013-08-05 22:13:00,69.1,58.5,29.93,WNW,299,0.0,1.0,69,0.00,,---,0.00,VWS V14.01,2013-08-06 05:13:00,
2013-08-05 22:18:00,69.0,58.4,29.93,WNW,299,0.0,1.0,69,0.00,,---,0.00,VWS V14.01,2013-08-06 05:18:00,
2013-08-05 22:23:00,69.0,58.0,29.93,WNW,299,0.0,1.0,68,0.00,,---,0.00,VWS V14.01,2013-08-06 05:23:00,
2013-08-05 22:28:00,68.8,57.4,29.93,WNW,299,0.0,1.0,67,0.00,,---,0.00,VWS V14.01,2013-08-06 05:28:00,
2013-08-05 22:33:00,68.6,57.2,29.93,WNW,299,0.0,0.0,67,0.00,,---,0.00,VWS V14.01,2013-08-06 05:33:00,
2013-08-05 22:38:00,68.5,56.7,29.93,NNW,348,0.0,1.0,66,0.00,,---,0.00,VWS V14.01,2013-08-06 05:38:00,
2013-08-05 22:43:00,68.5,56.7,29.93,NE,41,0.0,4.0,66,0.00,,---,0.00,VWS V14.01,2013-08-06 05:43:00,
2013-08-05 22:48:00,68.5,56.7,29.93,NE,42,0.0,4.0,66,0.00,,---,0.00,VWS V14.01,2013-08-06 05:48:00,
2013-08-05 22:53:00,68.4,56.2,29.93,NE,42,0.0,4.0,65,0.00,,---,0.00,VWS V14.01,2013-08-06 05:53:00,
2013-08-05 22:58:00,68.2,56.4,29.93,NE,42,0.0,4.0,66,0.00,,---,0.00,VWS V14.01,2013-08-06 05:58:00,
2013-08-05 23:04:00,68.0,56.2,29.93,NE,43,0.0,0.0,66,0.00,,---,0.00,VWS V14.01,2013-08-06 06:04:00,
2013-08-05 23:09:00,67.9,56.5,29.93,NE,42,0.0,0.0,67,0.00,,---,0.00,VWS V14.01,2013-08-06 06:09:00,
2013-08-05 23:14:00,67.7,56.0,29.93,NE,43,0.0,1.0,66,0.00,,---,0.00,VWS V14.01,2013-08-06 06:14:00,
2013-08-05 23:19:00,67.5,55.8,29.93,NE,43,0.0,1.0,66,0.00,,---,0.00,VWS V14.01,2013-08-06 06:19:00,
2013-08-05 23:24:00,67.4,55.7,29.93,NE,37,0.0,1.0,66,0.00,,---,0.00,VWS V14.01,2013-08-06 06:24:00,
2013-08-05 23:29:00,67.3,55.6,29.93,NE,38,0.0,1.0,66,0.00,,---,0.00,VWS V14.01,2013-08-06 06:29:00,
2013-08-05 23:34:00,67.1,55.4,29.93,NE,37,0.0,1.0,66,0.00,,---,0.00,VWS V14.01,2013-08-06 06:34:00,
2013-08-05 23:39:00,67.0,55.3,29.93,NE,46,0.0,3.0,66,0.00,,---,0.00,VWS V14.01,2013-08-06 06:39:00,
2013-08-05 23:44:00,66.8,55.1,29.93,NE,46,0.0,3.0,66,0.00,,---,0.00,VWS V14.01,2013-08-06 06:44:00,
2013-08-05 23:49:00,66.7,55.4,29.94,NE,45,0.0,3.0,67,0.00,,---,0.00,VWS V14.01,2013-08-06 06:49:00,
2013-08-05 23:54:00,66.5,55.2,29.94,NE,45,0.0,3.0,67,0.00,,---,0.00,VWS V14.01,2013-08-06 06:54:00,
2013-08-05 23:59:00,66.2,54.9,29.94,NE,46,1.0,3.0,67,0.00,,---,0.00,VWS V14.01,2013-08-06 06:59:00,